User: anonymous   Login
Location: Unspecified
(0.0000°N, 0.0000°E)
Time: 21:40:24
(UTC+00:00)
Language:

NNS O-27 - Orbit

View from above orbital plane
View from above orbital plane
View from above satellite
View from above satellite

Ground track
Ground track

The orbit data is extracted from the following two-line orbital elements,

1 18361U 87080A   18055.87807845 +.00000042 +00000-0 +54883-4 0  9996
2 18361 090.3317 343.8134 0106532 097.1158 264.2117 13.44448103492873
Epoch (UTC): 24 February 2018 21:04:25
Eccentricity: 0.0106532
inclination: 90.3317°
perigee height: 1013 km
apogee height: 1172 km
right ascension of ascending node: 343.8134°
argument of perigee: 97.1158°
revolutions per day: 13.44448103
mean anomaly at epoch: 264.2117°
orbit number at epoch: 49287

The dashed part of the orbit path shows where the satellite is in the earth's shadow,  

DLR